Regional Weather Roundup
Issued by NWS

Home | Current Version | Previous Version | Text Only | Print | Product List | Glossary Off
Versions: 1 2 3 4 5 6 7 8 9 10 11 12 13 14 15 16 17 18 19 20 21 22 23 24 25 26 27 28 29 30 31 32 33 34 35 36 37 38 39 40 41 42 43 44 45 46 47 48 49 50

732
ASUS45 KTFX 190410
RWRMT
MONTANA REGIONAL WEATHER ROUNDUP
NATIONAL WEATHER SERVICE GREAT FALLS MT
1000 PM MDT WED OCT 18 2017

NOTE: "FAIR" INDICATES FEW OR NO CLOUDS BELOW 12000 FEET WITH NO
SIGNIFICANT WEATHER AND/OR OBSTRUCTIONS TO VISIBILITY.

MTZ001>007-043-190500-
WEST OF THE DIVIDE

CITY           SKY/WX    TMP DP  RH WIND       PRES   REMARKS
KALISPELL      CLOUDY    56  42  59 S15       29.80F
MISSOULA       PTCLDY    49  40  71 CALM      29.84F
BUTTE          CLOUDY    50  29  44 VRB3      29.95S
MULLAN PASS    CLOUDY    43  32  65 SW12G25   29.85F
ANACONDA         N/A     55  27  33 S6        29.91S
DEER LODGE       N/A     52  30  43 SW7       29.91S
EUREKA           N/A     54  43  66 MISG      29.70F
HAMILTON         N/A     50  30  46 CALM      29.87S
LIBBY            N/A     52  46  82 S7G21     29.75S
$$

MTZ008-052>055-190500-
SOUTHWEST MONTANA

CITY           SKY/WX    TMP DP  RH WIND       PRES   REMARKS
BOZEMAN        CLOUDY    48  31  51 S9        29.92S
DILLON         CLOUDY    59  25  27 S15       29.95F
W YELLOWSTONE  CLOUDY    41  23  48 W6        30.12S
ENNIS          CLOUDY    55  25  30 S22G31    30.04S
THREE FORKS      N/A     61  26  26 SW12      29.90S
$$

MTZ009-010-012-014-046-048-049-054-190500-
EAST SLOPES AND CENTRAL MONTANA

CITY           SKY/WX    TMP DP  RH WIND       PRES   REMARKS
CUT BANK       MOCLDY    53  37  54 SW14G23   29.68S
GREAT FALLS    CLOUDY    57  31  37 SW20      29.73F
MALMSTROM AFB  CLOUDY    56  33  42 SW16      29.74F
HELENA         PTCLDY    51  34  52 CALM      29.83F
BOWMANS CRNR     N/A     53  32  45 S17G25    29.77F
CHOTEAU          N/A     57  30  35 S17       29.73F
FAIRFIELD        N/A     54  32  42 SW23G31   29.71F
POWER            N/A     55  32  41 SW20      29.72F
RAYNESFORD       N/A     51  33  50 N3        29.77F
ULM              N/A     51  33  50 S9        29.77F
$$

MTZ011-013-016-021-045-047-050-051-190500-
NORTH CENTRAL MONTANA

CITY           SKY/WX    TMP DP  RH WIND       PRES   REMARKS
HAVRE          PTCLDY    54  39  57 SW12      29.68F
LEWISTOWN      CLOUDY    50  31  48 SW12      29.81F
N BAR RANCH      N/A     50  28  43 SW12      29.87F
CHINOOK          N/A     57  37  47 SW5       29.69F
DENTON           N/A     54  31  42 S9        29.75F
GEYSER           N/A     53  30  41 SW5       29.78F
GRASS RANGE      N/A     46  30  54 W7        29.79S
JUDITH GAP     MOCLDY    49  29  46 SW14      29.86F
WINIFRED         N/A     53  31  44 SE7       29.77F
$$

MTZ017>020-022>027-061-062-190500-
NORTHEAST MONTANA

CITY           SKY/WX    TMP DP  RH WIND       PRES   REMARKS
GLASGOW        CLOUDY    46  29  51 SE13      29.77F
JORDAN           N/A     41  30  65 CALM      29.81F
SIDNEY         CLOUDY    40  26  57 CALM      29.84F
WOLF POINT     PTCLDY    43  25  49 N5        29.81F
MALTA          CLEAR     50  30  46 S5G12     29.74F
PLENTYWOOD       N/A     43  19  39 CALM      29.81F
POPLAR           N/A     46  25  42 SE6       29.81F
$$

MTZ028>42-056>058-190500-
SOUTHCENTRAL AND SOUTHEAST MONTANA

CITY           SKY/WX    TMP DP  RH WIND       PRES   REMARKS
BAKER          CLEAR     43  29  57 E8        29.89F
BILLINGS       PTCLDY    57  33  40 SW9       29.86F
LIVINGSTON     CLOUDY    61  28  28 SW32G40   29.88F
MILES CITY     CLOUDY    49  31  49 S9        29.84F
BIG TIMBER     CLEAR     57  25  28 W13       29.91S
FORSYTH          N/A     48  30  49 CALM      29.83F
HARLOWTON      MOCLDY    54  28  36 MISG      29.85F
LAUREL           N/A     54  32  43 SW10      29.87F
$$

REGIONAL REPORTS...DAKOTAS

CITY           SKY/WX    TMP DP  RH WIND       PRES   REMARKS
WILLISTON      CLOUDY    33  26  75 CALM      29.85F
MINOT          CLOUDY    42  24  49 SW8       29.87F
DICKINSON      CLOUDY    37  25  61 S9        29.89F WCI  30
BEACH            N/A     43  27  52 SE9       29.90F
CROSBY           N/A     36  23  60 S9        29.84F WCI  29
TIOGA            N/A     36  23  60 CALM      29.88S
WATFORD CITY     N/A     37  25  60 SE3       29.86F
BISMARCK       CLOUDY    41  25  53 CALM      29.94F
GRAND FORKS    CLOUDY    49  24  37 W10       29.88S
FARGO          CLOUDY    45  26  47 SW12      29.94S
BUFFALO SD       N/A     48  25  40 SE7       29.85F
RAPID CITY     CLOUDY    47  29  49 SE7       29.97F
$$

REGIONAL REPORTS...WYOMING/IDAHO/WASHINGTON

CITY           SKY/WX    TMP DP  RH WIND       PRES   REMARKS
GILLETTE       CLOUDY    55  19  24 S15       29.94F
SHERIDAN       CLOUDY    42  30  62 CALM      29.90F
BUFFALO WY     CLOUDY    56  10  16 NW5       29.95F
CODY           CLOUDY    61  23  23 SW8       29.99F
YELLOWSTONE LA   N/A     32  25  75 CALM      30.19F
IDAHO FALLS    CLOUDY    50  30  46 S5        30.08S
BOISE          PTCLDY    63  28  26 SE14      29.90F
SPOKANE        CLOUDY    52  51  97 S10       29.71F
$$

REGIONAL REPORTS...ALBERTA

CITY           SKY/WX    TMP DP  RH WIND       PRES   REMARKS
EDMONTON       CLEAR     41  23  48 SE10      29.35F
CALGARY        CLEAR     46  30  53 CALM      29.36F
LETHBRIDGE     MOCLDY    52  36  54 S16G26    29.53F
MEDICINE HAT   MOCLDY    57  37  47 S17G26    29.55F
$$

REGIONAL REPORTS...SASKATCHEWAN

CITY           SKY/WX    TMP DP  RH WIND       PRES   REMARKS
SWIFT CURRENT  PTCLDY    45  19  36 S17       29.63F
REGINA         CLEAR     32  16  51 S9        29.76F WCI  24
SASKATOON      MOCLDY    36  16  44 SE9       29.68F WCI  29
$$




USA.gov is the U.S. government's official web portal to all federal, state and local government web resources and services.